This is the latest recevied weather packets stored in our database for station/object DB0SMU-12. If no packets are shown the sender has not sent any weather packets the latest 10 day(s).
| Time | Temp. | Humidity | Pressure | Rain* | Wind** | Luminosity | Snow |
|---|---|---|---|---|---|---|---|
| 1787387739 | 16.11° C | 81% | 1020.2 hPa | 0 mm | - | - | - |
| 1787387558 | 16.11° C | 82% | 1020.2 hPa | 0 mm | - | - | - |
| 1787387377 | 15.56° C | 83% | 1020.1 hPa | 0 mm | - | - | - |
| 1787387196 | 15.56° C | 83% | 1020.2 hPa | 0 mm | - | - | - |
| 1787387015 | 15.56° C | 83% | 1020.3 hPa | 0 mm | - | - | - |
| 1787386834 | 15.56° C | 82% | 1020.1 hPa | 0 mm | - | - | - |
| 1787386653 | 16.11° C | 81% | 1020.1 hPa | 0 mm | - | - | - |
| 1787386472 | 16.11° C | 83% | 1020.1 hPa | 0 mm | - | - | - |
| 1787386292 | 16.11° C | 80% | 1020.1 hPa | 0 mm | - | - | - |
| 1787386111 | 16.11° C | 83% | 1020.2 hPa | 0 mm | - | - | - |
| 1787385930 | 16.11° C | 82% | 1020.1 hPa | 0 mm | - | - | - |
| 1787385749 | 16.11° C | 84% | 1020 hPa | 0 mm | - | - | - |
| 1787385568 | 16.11° C | 86% | 1020.1 hPa | 0 mm | - | - | - |
| 1787385387 | 15.56° C | 85% | 1020.1 hPa | 0 mm | - | - | - |
| 1787385206 | 15.56° C | 84% | 1020 hPa | 0 mm | - | - | - |
| 1787385025 | 15.56° C | 85% | 1020 hPa | 0 mm | - | - | - |
| 1787384844 | 15° C | 85% | 1020.1 hPa | 0 mm | - | - | - |
| 1787384663 | 15° C | 85% | 1020.1 hPa | 0 mm | - | - | - |
| 1787384482 | 15° C | 87% | 1020 hPa | 0 mm | - | - | - |
| 1787384301 | 15° C | 84% | 1019.9 hPa | 0 mm | - | - | - |
| 1787384120 | 15° C | 87% | 1019.9 hPa | 0 mm | - | - | - |
| 1787383939 | 15° C | 86% | 1019.8 hPa | 0 mm | - | - | - |
| 1787383758 | 15° C | 85% | 1019.8 hPa | 0 mm | - | - | - |
| 1787383577 | 15° C | 83% | 1019.8 hPa | 0 mm | - | - | - |
| 1787383396 | 15° C | 85% | 1019.7 hPa | 0 mm | - | - | - |
* Rain latest hour (hover to see other rain measurements)
** Current wind speed in m/s (hover to see current wind gust speed)